sat.trackr.live / text

‹ back to catalog

STARLINK-35686

NORAD 66407 · 2025-257AD

PAYLOAD ACTIVE UNKNOWN

§ Identity

Operator
Country
US
Launch date
2025-11-09
Launch site
AFETR
Launch vehicle
Mass (kg)
RCS (m²)

Purposes: comms

External: N2YO · Heavens-Above · Gunter

§ Orbital elements

Epoch: 2026-09-20T13:35:22.054272Z

Period
93.85 min
Inclination
53.1592°
Eccentricity
0.0000903
Mean motion
15.34404343 rev/d
Perigee alt
462.1 km
Apogee alt
463.3 km
Semi-major
6,840.8 km
B*
5.2603e-4
RAAN
27.3184°
Arg perigee
78.8218°
Mean anomaly
281.2886°
Rev number
4,963

§ Raw data

STARLINK-356861 66407U 25257AD  26263.56622748  .00017440  00000+0  52603-3 0  99972 66407  53.1592  27.3184 0000903  78.8218 281.2886 15.34404343 49639

JSON: /api/v1/satellites/66407 · /tle

For live sub-satellite position, see the globe view (requires WebGL).

§ Visibility from observer

Set your observer location to see the next 7 days of passes ≥ 10°. The values pass through the URL so the page stays shareable.

No JS? Fill the form by hand. The geolocation button needs JavaScript.